Location: Newark
(11.0000°N, 122.6717°E)
Time: 16:38:36
(UTC+00:00)

STARLINK 1029 - Pass Details

Date: 16 December 2019
Orbit: 382 x 384 km, 53.0° (Epoch: 22 January)

Event Time Altitude Azimuth Distance (km) Brightness Sun altitude
Exits shadow 21:02:01 22° 330° (NNW) 931 4.3 -14.1°
Maximum altitude 21:03:57 80° 54° (NE) 407 3.0 -13.7°
Drops below altitude 10° 21:07:10 10° 142° (SE) 1,434 6.7 -12.9°
Sets 21:09:14 0° 143° (SE) 2,287 7.9 -12.5°
